| time (UTC) | temp C | wind direction | speed KPH | gust KPH | rain 1hr cm | rain 24hr cm | rain mn cm | humidity % | barometer mb |
| 20260503193135 | 27 | 306 | 4.8 | 8.0 | 0.00 | 0.00 | 0.00 | 44 | 1012.5 |
| 20260503192137 | 27 | 335 | 1.6 | 9.7 | 0.00 | 0.00 | 0.00 | 46 | 1012.8 |
| 20260503191136 | 27 | 318 | 3.2 | 4.8 | 0.00 | 0.00 | 0.00 | 45 | 1012.9 |
| 20260503190136 | 27 | 303 | 1.6 | 11.3 | 0.00 | 0.00 | 0.00 | 46 | 1013.0 |
| 20260503183136 | 26 | 5 | 4.8 | 11.3 | 0.00 | 0.00 | 0.00 | 47 | 1013.1 |
| 20260503182136 | 25 | 236 | 4.8 | 8.0 | 0.00 | 0.00 | 0.00 | 48 | 1013.3 |
| 20260503180136 | 25 | 243 | 3.2 | 8.0 | 0.00 | 0.00 | 0.00 | 49 | 1013.3 |
| 20260503175136 | 25 | 300 | 3.2 | 4.8 | 0.00 | 0.00 | 0.00 | 49 | 1013.4 |
| 20260503174136 | 24 | 318 | 1.6 | 4.8 | 0.00 | 0.00 | 0.00 | 51 | 1013.5 |
| 20260503173136 | 23 | 349 | 3.2 | 4.8 | 0.00 | 0.00 | 0.00 | 51 | 1013.5 |
| 20260503172136 | 23 | 345 | 3.2 | 12.9 | 0.00 | 0.00 | 0.00 | 51 | 1013.6 |
| 20260503171136 | 22 | 331 | 8.0 | 8.0 | 0.00 | 0.00 | 0.00 | 52 | 1013.6 |
| 20260503170136 | 22 | 315 | 8.0 | 8.0 | 0.00 | 0.00 | 0.00 | 54 | 1013.7 |
| 20260503150136 | 14 | 147 | 0.0 | 0.0 | 0.00 | 0.00 | 0.00 | 85 | 1014.0 |
| 20260503140136 | 10 | 147 | 0.0 | 0.0 | 0.00 | 0.00 | 0.00 | 93 | 1013.9 |
| 20260503131136 | 9 | 149 | 0.0 | 0.0 | 0.00 | 0.00 | 0.00 | 92 | 1014.0 |
| 20260503130137 | 9 | 149 | 0.0 | 0.0 | 0.00 | 0.00 | 0.00 | 92 | 1014.0 |
| 20260503110136 | 11 | 256 | 0.0 | 1.6 | 0.00 | 0.00 | 0.00 | 90 | 1014.3 |
| 20260503100136 | 11 | 196 | 0.0 | 0.0 | 0.00 | 0.00 | 0.00 | 89 | 1014.4 |
| 20260503090136 | 12 | 196 | 0.0 | 0.0 | 0.00 | 0.00 | 0.00 | 88 | 1014.5 |
| 20260503081135 | 12 | 196 | 0.0 | 3.2 | 0.00 | 0.00 | 0.00 | 86 | 1014.7 |
| 20260503080136 | 13 | 196 | 1.6 | 4.8 | 0.00 | 0.00 | 0.00 | 85 | 1014.7 |
| 20260503072136 | 13 | 80 | 1.6 | 3.2 | 0.00 | 0.00 | 0.00 | 82 | 1014.5 |
| 20260503070136 | 14 | 80 | 1.6 | 1.6 | 0.00 | 0.00 | 0.00 | 80 | 1014.5 |
| 20260503060135 | 16 | 78 | 0.0 | 1.6 | 0.00 | 0.00 | 0.00 | 74 | 1014.1 |
| 20260503054136 | 17 | 78 | 1.6 | 3.2 | 0.00 | 0.00 | 0.00 | 69 | 1014.0 |
| 20260503053136 | 17 | 85 | 0.0 | 0.0 | 0.00 | 0.00 | 0.00 | 69 | 1014.0 |
| 20260503052136 | 17 | 85 | 0.0 | 0.0 | 0.00 | 0.00 | 0.00 | 67 | 1014.1 |
| 20260503051135 | 18 | 85 | 0.0 | 1.6 | 0.00 | 0.00 | 0.00 | 67 | 1014.0 |
| 20260503045136 | 18 | 69 | 0.0 | 3.2 | 0.00 | 0.00 | 0.00 | 61 | 1013.9 |
| 20260503044136 | 19 | 39 | 0.0 | 1.6 | 0.00 | 0.00 | 0.00 | 58 | 1013.8 |
| 20260503043135 | 20 | 5 | 0.0 | 1.6 | 0.00 | 0.00 | 0.00 | 56 | 1013.8 |
| 20260503042136 | 20 | 341 | 1.6 | 3.2 | 0.00 | 0.00 | 0.00 | 57 | 1013.7 |
| 20260503041136 | 20 | 26 | 1.6 | 3.2 | 0.00 | 0.00 | 0.00 | 57 | 1013.6 |
| 20260503040135 | 20 | 315 | 1.6 | 3.2 | 0.00 | 0.00 | 0.00 | 57 | 1013.4 |
| 20260503035136 | 21 | 357 | 1.6 | 4.8 | 0.00 | 0.00 | 0.00 | 57 | 1013.3 |
| 20260503034136 | 21 | 321 | 1.6 | 8.0 | 0.00 | 0.00 | 0.00 | 57 | 1013.1 |
| 20260503030136 | 23 | 315 | 0.0 | 4.8 | 0.00 | 0.00 | 0.00 | 53 | 1012.7 |
| 20260503025135 | 23 | 336 | 1.6 | 4.8 | 0.00 | 0.00 | 0.00 | 52 | 1012.6 |
| 20260503024135 | 23 | 335 | 0.0 | 3.2 | 0.00 | 0.00 | 0.00 | 51 | 1012.5 |
| 20260503023135 | 23 | 325 | 4.8 | 4.8 | 0.00 | 0.00 | 0.00 | 50 | 1012.5 |
| 20260503022136 | 24 | 358 | 4.8 | 4.8 | 0.00 | 0.00 | 0.00 | 49 | 1012.4 |
| 20260503020136 | 25 | 14 | 1.6 | 8.0 | 0.00 | 0.00 | 0.00 | 48 | 1012.4 |
| 20260503015136 | 25 | 336 | 1.6 | 4.8 | 0.00 | 0.00 | 0.00 | 48 | 1012.4 |
| 20260503014136 | 25 | 322 | 3.2 | 4.8 | 0.00 | 0.00 | 0.00 | 47 | 1012.4 |
| 20260503013136 | 25 | 221 | 1.6 | 4.8 | 0.00 | 0.00 | 0.00 | 47 | 1012.4 |
| 20260503012135 | 25 | 325 | 3.2 | 9.7 | 0.00 | 0.00 | 0.00 | 47 | 1012.5 |
| 20260503011135 | 26 | 347 | 4.8 | 9.7 | 0.00 | 0.00 | 0.00 | 47 | 1012.4 |
| 20260503010136 | 26 | 290 | 4.8 | 12.9 | 0.00 | 0.00 | 0.00 | 46 | 1012.4 |
| 20260503003136 | 26 | 318 | 3.2 | 4.8 | 0.00 | 0.00 | 0.00 | 47 | 1012.5 |
| 20260503002136 | 26 | 325 | 3.2 | 8.0 | 0.00 | 0.00 | 0.00 | 47 | 1012.5 |
| 20260503001136 | 26 | 325 | 1.6 | 14.5 | 0.00 | 0.00 | 0.00 | 48 | 1012.4 |
| 20260503000135 | 26 | 335 | 4.8 | 9.7 | 0.00 | 0.00 | 0.00 | 48 | 1012.6 |
| 20260502235135 | 26 | 354 | 3.2 | 12.9 | 0.00 | 0.00 | 0.00 | 47 | 1012.6 |
| 20260502234136 | 26 | 292 | 4.8 | 14.5 | 0.00 | 0.00 | 0.00 | 47 | 1012.7 |
| 20260502233136 | 26 | 296 | 3.2 | 11.3 | 0.00 | 0.00 | 0.00 | 48 | 1012.9 |
| 20260502231136 | 26 | 305 | 6.4 | 12.9 | 0.00 | 0.00 | 0.00 | 48 | 1013.3 |
| 20260502230136 | 26 | 323 | 3.2 | 8.0 | 0.00 | 0.00 | 0.00 | 47 | 1013.4 |
| 20260502225135 | 26 | 342 | 4.8 | 9.7 | 0.00 | 0.00 | 0.00 | 48 | 1013.6 |
| 20260502224135 | 26 | 323 | 4.8 | 19.3 | 0.00 | 0.00 | 0.00 | 47 | 1013.8 |
| 20260502223141 | 26 | 319 | 8.0 | 12.9 | 0.00 | 0.00 | 0.00 | 46 | 1013.8 |
| 20260502222151 | 27 | 287 | 8.0 | 11.3 | 0.00 | 0.00 | 0.00 | 45 | 1014.0 |
| 20260502221142 | 26 | 283 | 6.4 | 8.0 | 0.00 | 0.00 | 0.00 | 45 | 1014.0 |
| 20260502220152 | 26 | 311 | 3.2 | 4.8 | 0.00 | 0.00 | 0.00 | 46 | 1014.0 |
| 20260502215200 | 26 | 329 | 4.8 | 9.7 | 0.00 | 0.00 | 0.00 | 47 | 1014.2 |